Flag for Switzerland Weather past 2 weeks in Zug, Zug, Switzerland

Now
61 °F

Cool.


Feels Like: 61 °F
Forecast: 58 / 66 °F
Wind: 2 mph from Northwest

Location: Zurich Town / Ville.

Current Time: Jul 29, 2014 at 2:19:18 PM

Latest Report: Jul 29, 2014 at 1:00 PM


Visibility: N/A

Pressure: 29.80 "Hg

Humidity: 89%

Dew point: 58 °F

Location of ZugLocation

Historic Weather in Zug — Graph

°F

Zug temperature yesterday

Maximum temperature yesterday: 76 °F (at 4:00 PM)
Minimum temperature yesterday: 59 °F (at 11:00 PM)
Average temperature yesterday: 65 °F

Past Weeks' High & Low Weather Summary

 TemperatureHumidityPressure
High87 °F (Jul 19, 6:00 PM)99% (Jul 23, 1:00 AM)30.19 "Hg (Jul 23, 1:00 AM)
Low56 °F (Jul 29, 7:00 AM)25% (Jul 18, 3:00 PM)29.72 "Hg (Jul 28, 5:00 PM)
Average67 °F74%29.97 "Hg
* Reported Jul 14 1:00 PM — Jul 29 1:00 PM, Zug, Weather by CustomWeather, © 2014

Note: Actual official high and low records may vary slightly from our data, if they occured in-between our weather recording intervals... More about our weather records

Advertising

Zug weather history for previous 24 hours

 ConditionsComfort  
Time TempWeatherWind HumidityBarometerVisibility
1:00 PM
Jul 29
61 °FCool.2 mph89%29.80 "HgN/A
12:00 PM59 °FCool.3 mph93%29.81 "HgN/A
11:00 AM58 °FCool.3 mph95%29.82 "HgN/A
10:00 AM57 °FCool.3 mph95%29.83 "HgN/A
9:00 AM57 °FCool.2 mph96%29.82 "HgN/A
8:00 AM57 °FOvercast.2 mph96%29.83 "HgN/A
7:00 AM56 °FCool.2 mph98%29.83 "HgN/A
6:00 AM57 °FCool.2 mph95%29.83 "HgN/A
5:00 AM57 °FCool.1 mph97%29.83 "HgN/A
4:00 AM57 °FCool.1 mph94%29.83 "HgN/A
3:00 AM58 °FCool.2 mph94%29.85 "HgN/A
2:00 AM58 °FCool.3 mph96%29.86 "HgN/A
1:00 AM59 °FCool.3 mph91%29.87 "HgN/A
12:00 AM58 °FCool.3 mph96%29.87 "HgN/A
11:00 PM
Jul 28
59 °FCool.5 mph96%29.90 "HgN/A
10:00 PM59 °FCool.3 mph96%29.89 "HgN/A
9:00 PM60 °FCool.6 mph94%29.88 "HgN/A
8:00 PM60 °FOvercast.12 mph94%29.85 "HgN/A
7:00 PM64 °FMild.9 mph82%29.80 "HgN/A
6:00 PM66 °FMild.12 mph74%29.79 "HgN/A
5:00 PM74 °FMild.2 mph57%29.72 "HgN/A
4:00 PM76 °FMild.1 mph54%29.74 "HgN/A
3:00 PM74 °FMild.1 mph58%29.77 "HgN/A
2:00 PM73 °FOvercast.5 mph66%29.80 "HgN/A
Weather by CustomWeather, © 2014

See weather overviewHow to use our weather pages